Location: Unspecified
(47.5840°N, 122.3000°W)
Time: 23:35:25
(UTC+00:00)

Cosmos 2322 - Pass Details

Date: 04 August 2024
Orbit: 841 x 853 km, 71.0° (Epoch: 16 September)

Event Time Altitude Azimuth Distance (km) Brightness Sun altitude
Exits shadow 12:08:08 - 229° (SW) 2,600 5.6 -7.1°
Reaches altitude 10° 12:08:31 10° 230° (SW) 2,462 5.4 -7.1°
Maximum altitude 12:13:58 48° 304° (NW) 1,095 4.2 -6.3°
Drops below altitude 10° 12:19:27 10° 19° (NNE) 2,470 7.0 -5.5°
Sets 12:22:00 0° 25° (NNE) 3,408 8.0 -5.2°
